カタログに戻る

CZ-6A DEB

運用中PO
NORAD 56283·DEBRIS·🇨🇳 China

打ち上げ Nov 11, 2022 から Taiyuan Satellite Launch Center

Loading…

次のパス (今後24時間)

TLE

最新Source: Space-Track

元期: Sep 14, 2026, 03:02 UTC

1 56283U 22151ADB 26257.12665051  .00017555  00000-0  21586-2 0  9990
2 56283  98.5747 315.7837 0048680  19.8015 340.5071 14.82229066185251

AllMySatでCZ-6A DEBをリアルタイム追跡

Download on the App Store